weather.gov     
National Weather Service

Terminal Aerodrome Forecast
NWS Homepage
This page is being discontinued on March 12, 2014.
The same data is available at this site. Please update your bookmarks.
Thank you, and we apologize for the inconvenience.
Please send an email to SR-SRH.Webmaster@noaa.gov with any concerns.


Current Version
Previous Version:    01  02  03  04  05  06  07  08  09  10  11  12  13  14  15  16  17  18  19  20  21  22  
[Printable]
662
FTUS42 KMLB 211700 RRA
TAFISM
TAF
KISM 211746Z 2118/2218 15004KT P6SM SCT025 OVC060
     FM212000 17007KT P6SM VCSH SCT030 BKN070
     FM220300 15005KT P6SM VCSH SCT010 BKN020 OVC040
     FM220700 16003KT 5SM SHRA BKN015 OVC030=


U.S. Dept. of Commerce
NOAA National Weather Service
1325 East West Highway
Silver Spring, MD 20910
E-mail: w-nws.webmaster@noaa.gov
Page last modified: May 16, 2007
NATIONAL WEATHER SERVICE: for Safety, for Work, for Fun - FOR LIFE